Simultaneous Nadir Overpasses (SNOs) Predictions

Prediction of SNOs between GOES-16 and TERRA Satellite Orbit:

Table of predicted SNOs for the next 14.0 days since TLE Epoch: 6/10/2023
Index Date Time (GOES-16) GOES-16 Lat,Lon TERRA Lat,Lon Distance(km) Time Diff (sec)
1 06/10/2023 15:14:31 -0.01, -75.19 0.31, -76.79 182.07 80
2 06/12/2023 14:55:31 -0.02, -75.20 -0.50, -72.85 267.41 80
3 06/13/2023 03:18:32 0.01, -75.20 -0.53, -77.79 294.82 80
4 06/15/2023 02:59:32 0.01, -75.22 0.29, -73.85 155.46 80
5 06/15/2023 15:22:23 -0.01, -75.23 0.73, -78.75 400.40 80
6 06/17/2023 15:03:23 -0.01, -75.25 -0.12, -74.81 50.38 80
7 06/20/2023 03:10:03 0.02, -75.28 -0.09, -75.81 59.99 80
8 06/22/2023 02:51:02 0.03, -75.31 0.74, -71.86 392.25 80
9 06/22/2023 15:13:53 -0.02, -75.33 0.27, -76.77 163.07 80
